Wind_Gust
5 5 4 4 3 2 4 9 10 9 8 8 5 6 16 6 9 8 10 10 6 5 4 7 6 13 12 12 18 13 6 21 15 24 23 21 16 24 22 24 22 21 23 23 21 20 19 20 22 22 23 23 23 24 24 24 24 24 24 23 24 24 24 24 23 24 23 23 22 22 22 23 21 21 20 19 19 18 18 18 19 20 20 21 21 21 21 20 21 22 22 22 21 20 19 19 17
5 5 5 2 4 4 7 6 10 3 9 6 12 3 11 5 3 7 9 10 6 13 8 5 10 14 14 15 14 13 8 9 6 8 8 11 18 23 26 28 27 28 25 24 22 21 19 21 23 22 22 23 23 23 23 25 25 24 24 23 23 24 24 23 23 23 22 22 22 22 22 22 21 20 19 18 18 17 16 18 19 19 19 20 21 21 21 20 21 21 21 21 20 19 19 19 19
3 6 5 3 5 7 5 7 10 6 8 12 14 14 6 4 9 12 11 10 10 14 8 7 11 8 7 6 5 7 9 6 14 10 16 14 26 16 24 28 28 29 29 26 24 22 20 20 24 24 24 24 24 24 23 23 24 23 22 22 23 24 23 23 22 22 22 21 22 23 23 22 21 20 18 18 17 16 15 16 18 19 18 19 19 20 20 20 20 20 20 20 19 19 21 21 20
2 4 7 4 6 7 7 6 6 13 11 11 12 9 7 6 12 15 12 9 11 8 7 6 7 5 8 8 7 7 9 9 10 23 28 28 30 27 24 26 23 26 24 25 24 23 20 23 25 24 24 24 25 25 23 23 23 24 23 22 23 23 23 22 23 22 21 22 22 22 22 22 20 20 19 18 17 16 16 15 16 18 18 18 19 19 20 20 19 20 20 19 18 20 21 21 21
2 3 4 7 12 6 8 11 9 10 13 14 11 9 6 10 15 16 14 14 12 9 7 8 8 9 5 13 6 9 12 10 8 10 26 12 15 25 25 24 21 22 23 20 21 22 21 26 25 24 24 25 24 24 24 24 22 22 22 22 22 22 21 21 21 21 21 21 21 21 21 21 20 19 18 17 16 15 15 16 14 17 17 17 18 18 19 20 19 19 19 18 19 21 22 21 21
3 2 4 6 8 8 11 8 10 11 9 9 7 8 6 6 9 13 17 11 13 19 21 15 17 12 10 6 8 7 14 18 14 11 20 13 24 21 22 22 24 24 23 21 19 19 21 27 24 23 23 24 24 24 24 23 23 22 21 21 21 21 21 20 20 20 21 21 21 21 21 20 20 18 18 16 15 15 16 16 14 16 15 17 18 18 19 19 19 19 19 18 20 21 21 21 20
8 7 8 8 9 8 10 8 10 8 13 9 11 8 11 14 17 14 15 15 7 16 8 15 10 10 10 10 9 7 8 10 19 18 14 23 25 23 25 24 23 23 22 22 20 21 23 27 25 24 25 24 25 24 24 23 23 22 21 20 21 20 20 20 20 20 21 21 22 21 20 20 19 18 17 16 15 15 15 15 16 14 14 15 16 17 19 19 19 18 18 18 19 19 19 20 22
2 10 9 9 11 9 10 7 10 10 11 13 10 12 14 16 17 12 17 7 16 11 9 15 12 12 10 5 12 7 9 6 14 23 24 26 24 22 22 23 23 21 20 19 19 20 25 27 24 23 24 24 24 24 24 23 23 22 21 20 20 20 21 20 20 20 20 21 21 21 19 19 19 17 16 15 14 15 15 15 15 16 15 15 16 17 18 20 19 18 17 17 17 18 19 20 21
6 11 4 12 8 12 7 11 13 7 10 9 12 10 11 12 17 16 17 16 15 8 13 16 14 19 11 6 11 9 11 18 23 27 25 25 25 23 24 21 23 21 19 18 19 20 21 24 23 23 23 24 25 24 23 23 22 22 21 20 20 19 20 20 20 20 19 20 20 20 19 19 18 17 15 14 14 14 14 15 15 16 16 16 17 18 19 18 19 17 16 15 16 17 18 19 21
7 9 8 15 9 13 9 11 7 9 12 8 12 15 16 19 19 16 14 19 18 6 16 13 10 11 15 11 12 6 11 21 25 24 25 25 24 21 21 24 24 25 22 20 18 19 19 24 24 23 22 23 23 23 23 22 22 21 21 20 20 20 19 20 19 18 19 19 20 20 19 19 18 17 15 14 13 13 14 14 16 16 17 17 18 18 19 18 18 16 15 15 15 16 18 19 21
12 9 6 11 8 11 16 10 10 9 8 9 8 12 17 23 19 25 16 18 17 14 14 10 12 18 13 8 14 8 14 21 27 26 24 25 22 22 21 19 21 23 25 23 19 19 21 21 26 24 22 22 22 22 21 21 21 20 19 19 20 19 19 18 18 18 19 20 20 19 19 19 18 16 15 13 13 12 13 14 16 17 17 18 18 18 19 18 17 15 14 14 15 16 17 19 21
10 11 9 10 13 13 9 10 6 9 7 7 15 15 18 18 15 20 21 21 21 15 18 10 20 15 8 11 14 8 14 18 23 23 22 21 22 20 21 20 20 20 23 24 20 19 19 20 21 24 25 24 23 22 21 22 21 20 19 19 19 18 19 18 18 18 18 19 19 19 19 19 18 16 14 14 13 13 13 14 15 17 17 17 18 18 18 18 17 14 13 13 14 15 17 19 22
11 6 8 11 11 6 5 7 6 6 7 12 17 22 18 12 16 19 21 22 25 17 19 20 22 14 16 12 10 8 13 11 14 21 20 19 19 21 19 21 20 21 21 21 23 21 19 18 19 19 20 25 23 23 23 22 22 21 20 20 19 18 18 18 18 18 18 19 19 19 19 18 18 16 15 14 14 13 13 14 15 16 17 17 18 18 18 17 16 14 13 13 13 15 18 20 22
13 12 14 15 4 7 9 7 4 7 13 10 11 15 13 12 8 10 16 16 19 23 20 22 32 16 11 12 13 15 16 9 14 17 20 17 20 21 20 21 20 22 22 23 22 23 20 18 18 17 20 20 18 21 22 23 21 21 21 20 19 20 20 19 19 18 18 18 19 19 18 18 17 16 15 14 14 13 13 14 14 15 16 17 17 17 18 17 15 14 13 13 13 15 18 21 23
13 7 11 9 7 4 6 18 8 10 19 9 21 19 17 12 10 14 20 24 27 19 18 20 27 22 22 18 18 24 22 14 16 16 19 17 19 19 19 19 20 21 23 23 22 23 21 19 18 17 16 16 16 14 14 20 23 22 22 21 20 20 21 20 20 19 20 20 19 18 18 18 16 16 15 14 14 14 13 13 14 14 15 16 16 17 17 16 14 13 13 12 13 14 19 22 23
12 10 10 10 10 8 13 8 7 11 20 11 21 14 15 13 10 11 16 14 29 18 30 26 19 27 23 27 27 29 21 19 18 19 20 19 17 16 17 18 18 18 20 21 24 22 22 20 18 18 17 16 14 13 14 14 19 22 22 22 21 22 22 22 22 22 22 22 21 19 18 15 14 13 16 13 14 14 13 11 13 13 14 15 15 16 16 15 14 13 12 12 13 14 19 22 22
4 10 11 12 13 6 10 11 7 14 11 17 8 7 15 21 10 12 16 11 24 22 23 32 30 13 29 32 24 26 23 21 20 22 22 20 20 20 18 18 18 17 19 19 21 24 23 22 21 19 17 16 15 14 14 14 17 21 19 21 22 21 20 21 21 22 21 20 18 17 16 11 9 9 11 8 12 9 12 13 13 14 14 14 14 15 15 14 13 12 11 12 13 17 21 22 22
6 13 12 13 10 9 8 11 10 5 13 14 8 8 17 18 17 20 18 17 18 21 13 12 18 16 14 17 29 29 28 29 27 28 24 23 20 24 23 22 22 21 21 20 18 19 21 21 21 19 18 17 15 15 14 13 15 17 12 13 15 17 17 17 17 14 14 12 15 15 9 9 9 8 10 10 6 8 10 13 13 14 14 13 12 13 13 13 13 12 12 11 13 15 17 16 16
10 8 10 12 10 13 7 7 12 13 17 20 13 11 7 12 9 16 16 21 18 20 15 14 13 19 23 26 27 29 27 27 28 28 29 26 27 31 29 24 24 22 22 21 19 19 18 18 18 19 18 17 16 13 14 13 13 12 12 12 13 14 14 14 10 12 9 10 11 9 9 8 8 8 9 10 8 10 10 12 13 13 13 13 12 12 12 13 14 14 15 13 13 13 13 13 14
7 10 10 9 10 9 10 11 14 13 13 23 15 12 8 10 10 9 10 12 17 15 13 13 12 15 22 25 27 28 27 28 27 28 28 27 25 29 28 28 25 24 22 21 22 20 18 19 20 19 19 17 16 15 13 13 12 12 12 12 11 12 11 12 10 10 10 10 11 10 9 7 7 8 11 14 11 6 8 11 13 13 13 13 13 10 11 13 14 15 14 12 9 7 11 14 15
9 8 11 10 8 6 9 9 12 16 14 18 13 9 13 8 8 7 7 12 16 17 6 11 16 17 22 28 29 28 28 26 25 26 26 24 21 22 24 23 24 23 20 19 19 20 21 21 19 19 19 17 16 16 15 15 13 13 12 12 11 11 11 11 10 10 10 11 12 11 10 8 8 8 7 9 8 7 7 7 7 7 7 9 10 9 8 9 10 10 10 10 8 9 11 14 16
7 10 9 11 5 7 12 14 15 12 12 11 10 9 12 7 4 8 5 5 9 11 14 15 11 17 25 25 29 27 28 28 26 26 26 26 27 22 19 18 16 18 21 21 21 20 18 19 19 20 18 16 16 17 17 16 16 15 13 12 12 10 12 11 11 11 11 12 11 11 11 10 9 8 7 8 8 7 7 7 7 7 7 8 9 9 8 8 8 8 11 11 9 8 9 11 13
12 13 10 11 12 12 8 14 10 11 12 8 11 5 6 6 9 5 5 8 8 12 11 12 12 18 16 21 27 24 26 26 26 28 26 23 23 22 24 22 26 24 22 21 20 19 20 19 19 21 20 18 15 15 16 16 14 13 12 12 13 11 11 13 12 11 10 10 11 10 11 11 10 8 8 8 9 8 8 8 9 8 8 8 7 7 8 7 7 8 10 10 8 9 8 10 12
13 21 8 16 10 13 12 13 15 11 6 12 12 5 7 7 12 4 6 9 12 12 13 9 16 19 19 19 16 25 31 31 30 28 30 30 30 28 25 24 23 21 21 22 20 19 20 20 19 19 18 18 16 15 15 16 14 13 12 13 12 13 13 12 11 11 10 11 10 10 9 10 11 10 9 9 9 8 8 8 10 9 8 7 6 7 7 7 7 7 9 10 9 8 9 8 12
11 18 6 9 8 11 10 12 11 11 9 12 6 10 9 9 11 5 6 10 9 8 9 11 10 16 13 18 15 18 18 22 22 15 10 10 12 15 14 19 20 20 20 20 20 21 20 21 20 21 19 19 19 18 15 15 15 15 14 12 13 13 12 11 10 10 10 9 9 10 9 10 9 9 9 10 8 9 7 7 9 10 9 8 7 6 6 6 7 7 8 11 10 9 8 8 11
7 7 12 11 11 8 8 6 6 6 8 4 11 9 13 13 8 9 10 10 10 9 9 9 9 11 13 13 16 15 16 20 15 19 21 16 17 19 14 20 20 21 23 23 24 23 23 22 25 29 28 27 24 21 19 17 17 17 15 15 13 13 10 10 9 10 10 10 11 10 11 10 10 11 10 9 11 10 8 7 8 8 9 8 8 8 7 8 8 7 7 9 12 9 9 9 11
10 7 7 11 12 7 7 4 6 6 7 8 6 7 16 15 10 12 8 10 7 9 5 6 10 10 11 13 16 15 14 19 23 24 26 27 24 20 17 20 22 22 24 25 25 25 24 24 24 23 24 23 23 23 21 20 18 17 16 15 14 13 12 12 11 11 11 12 12 10 10 9 9 9 10 10 9 10 9 9 9 8 8 9 8 9 7 9 8 10 10 10 10 9 9 10 11
8 11 7 6 11 8 7 8 9 6 10 7 8 14 11 14 11 15 10 12 7 7 10 7 11 11 11 10 13 10 13 15 28 28 27 25 25 23 24 28 25 26 28 27 24 23 23 23 23 22 23 23 26 24 22 22 21 19 17 16 16 14 13 13 12 12 13 13 11 11 11 10 9 10 11 11 11 10 11 11 10 10 11 10 10 10 9 9 10 9 7 7 8 8 7 9 10
10 8 12 12 11 15 9 7 7 7 11 8 6 10 18 16 14 12 20 9 8 6 8 12 9 14 13 14 13 13 16 17 17 22 28 27 25 24 26 23 28 26 21 25 22 21 22 22 23 23 23 23 24 26 26 22 21 20 20 17 16 16 15 13 14 14 13 12 12 12 12 11 9 12 11 12 12 11 10 11 11 12 12 11 11 10 9 8 7 8 9 6 7 8 7 8 9
10 8 9 14 14 15 13 8 6 13 12 4 7 18 13 18 19 19 18 21 7 7 9 10 11 12 14 14 13 14 13 13 19 24 21 19 25 27 23 20 21 23 20 18 21 23 22 19 20 20 24 25 25 23 25 24 23 22 20 18 17 17 15 15 15 13 13 12 12 13 13 12 11 12 12 11 11 11 10 11 11 12 12 11 11 10 11 9 9 9 11 10 10 10 9 8 10
12 13 12 8 11 14 14 12 11 15 10 5 6 13 15 16 18 21 17 16 9 7 10 9 11 9 7 10 15 16 13 19 28 24 21 21 21 18 20 20 23 22 22 20 25 26 21 19 19 20 19 24 25 23 25 25 22 23 22 20 19 18 16 16 15 14 13 13 12 13 14 13 13 14 13 13 13 11 11 11 12 13 12 11 11 11 11 10 8 12 11 14 11 10 9 10 11
8 14 13 11 10 14 19 12 6 16 14 9 10 12 19 21 19 17 17 16 7 8 9 9 11 10 9 12 20 21 25 20 13 14 18 20 16 19 21 23 26 26 23 24 22 22 22 21 19 20 20 23 25 25 23 23 25 21 19 18 18 17 17 16 15 15 14 13 13 13 13 13 14 16 15 13 13 13 13 12 13 11 10 11 11 11 9 10 9 10 11 14 14 11 10 9 9
12 8 8 14 6 13 17 10 6 13 22 5 14 19 10 15 13 16 18 12 10 6 10 9 12 11 9 13 19 21 17 18 16 22 26 23 15 18 21 24 25 24 22 22 22 20 21 20 20 20 22 24 25 24 20 18 21 20 20 20 18 17 17 17 15 14 15 15 14 15 14 15 14 16 17 14 14 14 14 13 12 12 10 11 12 12 11 10 9 11 9 12 15 14 12 10 8
10 7 9 8 8 10 14 16 8 10 10 10 13 18 15 14 17 17 19 13 13 10 9 10 10 10 10 13 16 21 25 25 27 32 34 29 24 19 19 22 23 23 20 19 21 26 26 23 21 21 21 19 25 27 23 21 21 20 20 20 19 19 16 15 14 15 16 16 15 16 15 15 15 16 17 15 13 13 14 14 12 12 11 12 12 12 13 9 9 12 12 9 13 14 11 12 10
8 10 10 15 5 7 14 12 11 13 7 7 6 11 13 15 15 17 15 15 14 17 14 11 14 16 17 13 16 17 20 22 25 30 30 28 21 19 20 21 22 22 21 19 20 20 21 22 19 20 20 17 15 21 22 18 19 17 15 18 18 17 15 14 15 15 16 16 17 16 16 16 16 15 16 15 14 13 11 13 13 10 11 12 12 12 12 9 9 10 14 11 7 13 15 13 14
7 7 10 7 9 13 13 12 8 4 9 7 7 10 13 14 16 19 20 17 17 16 15 15 14 16 16 16 15 15 17 21 20 23 26 24 21 19 19 19 21 22 20 20 20 19 19 19 17 17 18 18 15 14 18 19 17 20 20 15 15 16 16 17 17 18 15 16 16 17 17 17 15 16 15 15 15 14 12 12 12 11 10 12 13 13 13 10 12 10 10 11 10 6 7 12 11
9 8 4 8 7 11 8 10 12 6 6 4 4 8 7 11 13 16 18 19 25 24 23 20 19 19 18 18 18 16 16 20 17 20 21 19 18 18 17 17 18 17 18 19 21 21 21 25 21 21 19 18 19 18 18 24 24 17 14 20 22 20 22 19 18 17 17 17 16 17 17 18 16 15 15 14 15 14 13 12 13 10 11 12 13 14 11 12 12 12 12 9 13 9 7 8 11
11 8 6 11 7 14 11 9 9 10 11 4 6 9 10 10 12 14 13 23 24 20 20 22 19 19 19 22 20 20 17 14 13 11 9 10 12 13 15 18 18 21 20 21 24 26 23 20 23 23 20 21 22 23 21 19 23 31 30 27 24 22 20 19 18 17 19 17 15 14 15 15 16 16 15 15 15 15 14 13 13 12 11 11 11 11 9 9 8 8 10 10 8 14 14 11 13
13 5 8 9 13 9 12 10 8 10 12 11 10 13 12 12 9 11 17 14 15 16 15 14 15 19 21 21 21 22 25 26 17 15 17 19 19 19 20 21 24 28 26 27 25 21 21 23 22 21 22 22 21 20 19 22 17 17 21 23 25 22 18 20 20 17 13 13 13 14 14 15 16 16 15 15 16 15 15 14 14 12 12 11 10 11 10 10 10 11 11 13 10 7 8 11 15
7 5 5 9 8 6 12 13 9 12 10 10 8 12 12 10 7 9 13 14 12 12 13 14 15 19 21 19 18 22 23 28 21 18 18 17 21 22 19 21 23 19 20 19 21 25 24 23 22 23 23 22 21 21 20 18 23 23 21 22 21 19 20 16 11 12 13 12 14 15 15 16 16 16 15 15 15 14 13 13 12 12 12 12 13 13 12 13 11 10 11 11 11 11 13 13 13
4 4 5 6 4 5 9 9 12 7 12 6 12 14 13 15 20 24 22 20 25 24 25 28 26 21 18 17 20 19 21 22 20 19 16 16 17 21 25 24 21 23 24 26 27 27 27 28 26 24 23 23 21 22 20 14 13 14 13 8 7 11 10 11 12 10 13 15 14 14 21 17 16 16 15 16 15 13 12 12 12 13 12 12 12 14 14 16 15 14 14 12 13 15 12 13 13
9 9 12 10 5 4 8 8 15 19 15 8 12 17 12 11 14 19 18 23 23 20 25 25 23 24 24 24 24 23 20 17 23 22 23 23 26 23 18 15 19 22 25 28 27 27 21 21 20 20 19 20 21 18 17 17 17 22 22 19 17 16 15 16 19 20 19 19 24 21 16 16 16 16 16 15 16 14 13 13 12 12 12 12 14 15 13 12 12 13 13 13 13 10 14 11 19
4 11 9 9 6 6 7 9 11 9 9 11 7 10 17 13 18 17 19 18 20 23 26 24 26 27 27 25 23 23 23 22 17 17 17 14 13 15 13 17 20 22 22 15 11 10 12 17 18 20 21 20 18 17 17 17 16 17 24 25 24 24 22 20 20 20 20 19 14 8 12 13 14 16 15 15 15 16 14 13 13 13 13 13 13 12 13 14 14 15 12 12 14 11 11 17 18
8 7 6 7 6 5 4 6 7 9 7 12 6 9 9 10 14 12 17 16 20 22 26 26 26 26 27 24 23 21 22 21 20 19 19 16 8 9 11 11 13 13 10 8 7 7 12 15 15 17 17 18 18 18 18 19 19 17 16 16 19 21 22 22 22 20 11 8 9 10 11 11 14 15 17 16 16 16 16 14 14 13 14 14 14 15 17 14 13 13 14 14 11 13 15 18 16
11 6 7 5 4 5 5 3 7 7 2 14 14 4 7 6 11 13 17 17 21 21 24 23 25 25 25 23 23 21 22 24 21 20 19 20 19 15 12 12 9 10 10 10 9 9 8 8 11 12 15 16 16 20 19 17 18 18 17 14 13 11 12 10 11 11 11 11 11 10 12 12 13 14 16 16 17 17 17 17 15 15 15 14 15 15 15 15 16 16 15 16 15 14 15 13 16
7 8 7 8 8 9 3 4 4 5 5 9 11 5 7 6 12 18 17 10 21 22 22 19 22 25 23 21 19 21 23 22 24 22 20 20 19 19 16 18 17 13 10 10 9 9 8 9 13 14 15 15 19 19 19 17 17 17 15 12 13 11 11 8 9 10 10 10 12 10 11 12 13 15 16 15 16 17 17 17 17 17 17 16 16 17 16 16 16 16 17 17 17 16 12 13 18
4 6 3 7 11 9 7 11 6 9 4 11 11 7 9 8 11 13 17 15 18 21 19 20 24 25 24 18 17 20 19 19 22 20 20 20 19 20 18 21 17 19 17 15 13 13 13 15 14 17 14 13 14 16 17 17 16 16 17 16 15 13 11 12 10 13 9 9 12 15 13 12 13 15 14 14 16 16 17 17 18 18 17 17 18 18 19 19 18 17 17 16 16 17 14 13 12
4 4 4 7 8 14 10 10 9 8 10 7 4 15 10 10 6 10 13 12 15 16 18 22 26 26 22 16 15 19 18 18 18 19 20 21 22 22 22 23 21 20 20 19 18 19 18 16 18 16 17 16 14 11 15 18 18 12 12 14 16 16 17 17 17 15 15 14 13 13 17 15 17 19 21 17 15 16 17 18 17 16 19 19 21 19 17 17 16 15 15 16 17 16 13 14 13
15 9 11 6 8 11 6 13 7 7 12 7 2 5 10 16 7 11 12 14 17 16 18 22 21 22 18 17 18 19 18 18 19 18 19 19 21 22 21 22 22 22 20 19 18 15 18 20 24 19 22 23 22 21 19 18 19 14 15 16 15 16 17 18 18 16 15 15 14 12 12 12 16 25 23 19 17 16 16 18 18 19 18 18 17 17 16 15 15 15 16 16 17 17 17 16 16
10 7 8 8 4 6 4 8 5 9 11 10 4 5 12 10 9 14 13 15 17 16 23 20 23 20 21 22 20 20 22 20 19 18 18 19 19 19 21 21 21 22 22 23 20 18 15 15 18 17 18 22 21 20 20 21 22 21 21 21 21 20 18 18 19 21 22 18 16 16 16 15 16 20 18 21 20 19 19 18 17 18 17 15 15 16 15 15 15 16 16 17 17 18 16 17 17
8 6 7 11 12 10 5 7 5 5 10 12 8 8 10 10 8 14 15 14 16 17 23 19 19 15 17 20 22 22 23 19 21 23 21 20 21 19 19 20 19 20 20 21 22 20 19 19 19 13 12 17 20 21 23 24 24 24 24 23 22 20 21 22 23 22 21 21 24 24 21 15 16 17 20 19 18 19 18 17 16 17 16 15 14 14 15 15 16 16 16 17 17 16 17 18 17
5 5 9 10 5 12 4 11 9 5 5 11 13 7 5 16 7 13 16 17 20 21 22 18 15 15 19 22 22 21 22 22 21 21 21 21 20 20 21 21 22 23 24 25 22 20 19 18 18 17 14 13 16 18 17 18 19 20 19 18 19 20 21 21 20 22 23 22 23 23 23 22 22 18 18 19 19 19 19 18 17 18 17 16 15 16 16 17 17 19 18 17 18 16 18 18 18
10 3 4 6 9 13 9 3 3 6 9 7 8 9 9 12 9 15 14 14 14 15 17 15 14 15 20 22 20 20 21 22 21 20 20 22 23 22 22 23 24 26 25 22 19 18 19 21 19 18 16 16 16 17 18 19 18 17 19 20 22 20 20 19 19 20 20 21 20 20 20 22 24 22 22 19 17 15 17 17 17 18 17 16 17 18 19 18 19 20 20 19 20 17 18 20 19
9 5 10 6 6 9 10 7 6 6 8 7 8 7 5 5 8 13 15 13 14 16 15 16 14 18 19 20 20 20 19 18 18 19 19 20 20 22 22 21 20 20 20 20 20 17 17 18 18 16 16 17 17 16 17 18 19 19 17 17 19 17 18 20 22 21 21 19 19 19 18 19 17 21 16 13 12 14 16 17 18 18 17 17 19 18 18 19 18 18 19 20 20 17 18 17 18
6 9 5 9 9 5 8 9 4 6 6 9 7 6 8 6 5 9 13 16 13 11 12 15 16 17 16 18 20 20 20 21 22 20 22 21 21 21 21 19 19 18 18 18 18 17 19 18 17 16 16 17 20 17 15 17 18 18 18 17 15 17 18 19 19 17 16 16 18 17 18 21 17 15 15 15 15 15 15 16 17 18 18 18 17 17 16 17 17 17 17 18 17 17 18 18 18
5 4 8 3 10 6 6 9 7 12 4 7 5 3 8 9 9 9 9 14 13 12 14 15 16 15 14 14 16 18 18 18 18 18 18 19 19 19 19 19 21 19 18 18 18 18 19 17 17 16 15 15 15 16 16 16 15 15 15 15 16 18 19 18 19 18 18 16 17 17 18 16 18 16 18 19 18 17 18 20 21 21 20 19 19 19 18 18 17 18 18 22 21 20 20 20 19
14 14 8 12 8 5 7 4 4 8 13 9 12 6 10 7 8 10 12 10 9 12 11 11 14 14 13 13 13 14 15 15 16 17 17 19 19 18 19 18 18 18 16 18 18 17 16 17 17 17 17 17 17 15 14 14 14 16 14 14 15 15 18 17 12 12 16 19 18 16 17 17 16 17 16 16 18 20 20 20 19 19 20 20 20 19 17 17 18 18 19 20 22 24 25 23 22
4 6 5 7 3 4 3 8 7 6 9 14 13 12 6 4 6 9 10 9 11 10 7 9 10 11 11 11 12 13 13 12 12 13 15 17 17 18 20 20 19 20 21 21 20 17 18 17 16 17 17 16 15 17 16 15 13 14 15 15 15 12 14 12 14 17 18 18 17 16 15 14 17 20 16 17 18 19 21 20 20 21 22 22 22 23 22 20 21 21 21 20 20 25 26 26 23
Wind_Speed
2 2 0 1 1 1 1 4 2 2 2 1 0 1 1 1 1 3 2 4 1 0 1 3 4 4 2 3 8 4 2 7 6 9 7 2 2 10 8 13 14 14 15 12 13 12 12 15 18 18 18 19 19 19 20 19 18 18 19 18 19 19 19 19 18 18 18 18 18 18 18 18 17 16 16 16 15 14 14 15 15 15 15 15 15 15 15 15 14 13 13 12 11 10 8 7 8
2 2 1 0 0 1 0 1 3 1 4 2 4 1 2 2 0 3 3 0 1 4 5 2 1 2 3 1 4 2 1 2 4 1 1 1 6 8 9 14 15 16 15 14 13 12 12 14 19 18 18 19 19 18 19 20 20 19 18 19 19 19 19 19 19 18 17 18 17 17 18 18 17 16 15 15 15 14 14 15 15 15 15 14 14 15 15 14 13 13 12 12 11 10 10 9 9
1 3 3 1 2 3 1 3 0 1 4 3 5 5 2 0 2 4 3 2 6 9 6 5 0 1 0 2 0 2 4 0 0 1 1 5 11 6 12 14 14 15 14 12 12 12 11 13 19 19 19 19 20 19 18 19 20 19 18 18 18 19 18 18 18 18 17 17 17 18 18 18 17 16 15 15 14 13 13 13 14 15 14 14 14 14 14 13 13 13 12 11 11 12 13 13 13
1 1 3 1 1 2 1 2 4 6 4 5 2 4 2 1 2 5 4 3 7 4 2 2 1 1 1 1 1 2 0 1 3 7 5 10 5 13 15 16 14 13 10 9 11 10 9 15 20 20 20 20 20 20 19 18 19 19 18 18 18 18 19 18 18 18 16 16 16 17 18 18 17 16 15 14 14 13 13 10 10 14 14 13 14 13 13 13 13 13 12 12 12 14 14 15 15
0 0 1 2 4 1 2 1 3 3 3 4 2 3 2 2 2 4 4 4 8 6 1 3 2 1 0 0 0 1 2 3 2 6 0 3 3 10 14 15 13 13 12 10 10 10 12 20 20 19 20 21 20 20 19 18 18 18 18 18 18 18 17 17 17 17 17 17 16 16 17 17 16 15 15 14 13 12 13 13 9 10 14 13 13 12 12 13 13 12 12 13 13 14 14 15 14
2 1 1 2 0 2 4 1 1 2 4 3 0 0 1 2 1 3 7 5 9 8 3 3 1 3 3 1 2 0 3 1 1 4 2 2 9 11 13 11 11 11 12 11 9 7 12 21 20 19 19 19 19 18 18 19 18 18 18 17 17 17 17 17 17 16 17 17 16 16 16 16 16 15 14 13 12 12 13 12 8 7 11 13 12 12 12 13 12 12 12 13 14 14 14 14 14
1 3 4 3 2 3 4 3 3 3 5 5 1 3 3 2 3 3 5 5 3 4 2 2 2 1 2 2 1 1 1 3 2 2 4 3 9 10 12 11 11 12 11 10 9 8 14 21 20 20 20 19 19 19 19 18 17 17 17 17 17 16 16 16 16 16 16 16 17 16 16 16 16 15 14 13 12 11 11 12 12 7 9 11 12 11 12 13 13 12 12 13 13 14 13 13 14
0 3 1 3 1 1 1 2 2 4 1 4 2 3 5 4 3 1 3 0 3 3 5 3 1 1 6 1 1 2 1 0 2 5 8 8 10 10 11 11 10 11 12 9 8 9 16 20 19 19 20 20 20 19 19 18 17 15 16 16 16 15 16 15 16 16 16 16 16 16 15 15 15 14 13 12 11 10 9 10 11 10 9 10 11 11 12 12 13 13 13 13 13 13 13 13 13
3 5 0 5 2 3 1 2 3 2 4 1 4 5 7 6 3 1 4 2 1 3 4 3 1 0 2 1 4 1 1 2 5 8 11 10 11 10 9 10 11 11 11 10 8 9 10 17 18 19 19 19 19 19 18 19 18 17 16 16 16 15 15 15 15 15 16 16 16 16 15 15 15 14 13 12 10 10 9 9 10 10 10 10 11 12 12 12 12 12 12 12 13 13 13 12 12
2 3 1 2 4 4 0 3 2 3 3 2 3 5 6 5 5 1 3 9 2 2 6 6 4 5 3 4 3 3 2 5 8 8 9 10 11 10 10 10 11 14 11 9 9 9 8 17 19 18 18 19 18 18 18 18 17 17 16 16 16 15 15 14 14 15 15 16 16 16 15 15 15 14 12 11 10 10 9 9 10 10 9 9 10 11 12 12 12 12 11 11 11 12 12 12 12
1 4 2 3 1 3 7 2 2 3 2 3 4 6 7 5 3 5 2 5 6 3 9 2 1 5 2 3 4 1 1 7 10 10 9 11 10 10 10 9 10 12 12 12 10 9 9 10 20 19 18 18 18 18 17 17 17 16 15 16 15 15 15 14 14 14 15 16 16 16 15 15 14 13 12 11 11 10 9 9 10 10 9 9 10 11 11 12 12 11 11 11 11 11 11 12 12
2 1 1 2 3 6 4 3 2 4 4 2 3 3 2 2 2 3 6 7 6 7 6 1 2 3 1 2 3 2 2 5 7 11 12 12 10 10 9 8 10 10 13 12 11 9 9 9 10 17 20 20 18 18 17 17 17 16 16 15 15 15 15 14 14 13 15 15 16 15 15 15 14 13 11 11 11 10 10 10 10 10 9 9 10 10 11 11 11 11 10 10 10 11 11 11 11
4 2 5 3 3 2 1 1 2 2 1 3 5 2 0 1 1 4 5 3 5 6 8 6 1 4 3 3 2 1 5 3 3 9 12 12 10 8 7 9 10 11 11 12 11 11 10 8 9 10 13 20 19 19 18 18 18 17 17 16 15 15 14 14 13 13 14 15 15 15 15 15 14 13 12 12 11 10 10 10 10 9 10 10 10 10 10 11 11 11 10 11 11 11 11 11 12
4 5 6 4 1 3 4 2 0 2 3 3 3 3 2 0 1 3 1 4 7 3 5 1 2 4 4 3 6 3 5 4 7 7 9 11 10 9 10 9 11 11 12 12 11 11 10 9 8 9 11 11 11 15 18 19 17 17 17 16 16 16 15 14 13 13 13 14 15 15 15 14 14 13 12 11 11 11 10 11 10 10 10 10 10 10 10 11 11 10 10 10 11 11 11 12 12
2 2 4 3 1 2 2 4 4 3 5 3 3 0 1 3 1 3 3 2 7 6 5 4 3 4 5 9 7 9 9 9 11 9 9 10 11 11 11 10 10 11 11 11 11 11 10 10 9 8 8 9 10 8 8 13 19 18 18 17 16 16 15 15 14 13 13 13 15 15 14 14 13 13 12 12 11 11 11 11 10 9 10 10 10 10 10 11 11 10 10 10 11 11 12 12 12
4 4 3 2 3 4 3 3 1 3 5 3 4 2 0 2 1 0 4 3 3 4 3 4 1 2 2 10 10 3 12 12 12 11 10 11 11 11 11 11 11 11 10 11 11 10 10 10 9 8 8 8 8 8 8 9 14 18 17 18 17 17 15 15 15 14 14 13 13 14 14 11 11 9 13 9 11 11 11 8 10 9 10 11 11 10 11 11 11 9 9 10 11 12 12 12 11
2 4 1 1 4 3 3 2 3 2 3 2 4 2 3 3 3 2 3 1 3 6 5 2 2 5 1 3 5 14 11 13 12 12 12 11 10 11 10 9 9 10 8 11 11 10 11 11 10 8 8 9 9 9 8 9 11 16 14 17 17 17 15 15 14 15 13 12 10 12 11 7 5 5 7 5 9 6 10 10 10 10 10 11 11 11 11 11 11 9 8 9 11 12 12 12 11
2 2 3 1 3 3 3 4 4 2 0 2 1 1 2 4 4 4 3 4 1 4 3 3 2 2 2 4 4 12 15 16 14 15 12 12 10 14 13 12 11 12 11 10 10 11 10 10 11 10 8 9 9 8 7 7 8 11 8 8 9 12 13 13 10 7 8 6 11 7 5 5 5 5 6 7 4 5 7 10 10 10 10 10 10 11 11 11 11 10 10 10 11 11 10 6 6
2 1 2 5 3 4 3 1 3 1 5 4 3 1 2 3 0 3 4 6 6 7 6 3 4 2 7 5 11 13 14 14 15 14 16 15 13 17 15 13 12 11 12 11 10 12 10 10 10 10 9 9 9 7 6 6 8 7 7 7 7 10 10 9 7 7 5 6 7 6 5 5 5 4 5 6 5 7 7 10 10 10 10 10 10 10 10 11 12 12 12 10 10 11 6 5 5
2 4 1 3 6 3 4 4 6 4 6 7 5 3 1 4 1 1 1 4 6 6 5 6 6 6 4 2 7 11 13 15 13 15 16 16 16 14 15 15 13 12 12 11 12 10 10 10 10 9 10 10 8 7 6 6 6 6 6 6 6 6 6 6 6 6 6 6 7 6 5 4 5 5 8 11 8 4 5 8 10 9 9 10 10 7 9 10 11 12 11 9 6 4 5 5 5
2 2 3 3 5 2 4 5 7 8 5 3 0 1 4 5 3 0 1 2 4 5 3 3 7 9 3 2 7 9 9 10 9 9 12 13 13 12 12 11 12 11 10 10 10 11 12 12 11 10 10 9 9 7 7 6 6 6 6 6 6 5 6 6 6 6 6 7 7 6 6 5 5 4 4 5 4 4 4 4 4 4 4 5 7 5 4 5 6 6 5 6 4 5 5 5 5
3 5 5 7 2 1 6 7 8 4 2 0 1 3 4 2 2 2 2 2 4 2 5 6 6 5 9 8 8 9 12 10 9 8 8 11 14 13 10 8 8 9 10 11 12 11 11 11 12 11 10 9 9 9 8 7 7 6 6 6 6 5 6 6 6 6 6 7 6 7 6 6 5 5 4 5 4 4 4 3 3 3 4 4 4 4 4 4 4 5 6 5 5 5 5 5 5
3 2 1 2 2 1 2 1 3 4 1 1 0 2 0 0 3 2 4 5 4 5 3 6 5 2 6 5 9 9 12 13 11 10 8 7 5 5 8 7 9 11 10 10 11 10 11 12 12 11 11 10 9 9 8 8 7 6 6 6 7 6 5 6 6 5 5 6 6 6 6 6 6 5 5 5 5 4 5 4 4 4 4 3 3 3 4 3 3 4 6 5 5 5 5 5 5
3 0 1 5 2 4 7 5 7 4 3 6 2 1 1 1 1 1 2 6 8 8 3 1 4 7 8 8 6 9 11 11 10 8 7 6 7 7 6 4 4 6 8 10 11 11 10 13 12 12 10 10 9 9 9 9 8 7 7 7 7 7 7 6 5 5 5 6 6 6 5 5 6 5 5 5 5 4 5 5 5 4 3 3 2 3 3 3 3 3 5 6 5 5 5 4 5
3 1 1 3 0 4 4 5 5 5 6 5 2 1 6 6 3 0 4 7 6 4 2 3 5 7 6 7 7 8 8 7 8 8 6 5 5 6 8 4 2 4 7 9 9 10 11 11 13 13 11 11 9 9 9 8 8 8 8 7 7 8 6 6 6 5 5 5 5 5 5 5 4 5 5 5 4 4 4 4 4 4 4 3 3 2 2 2 2 3 4 6 5 5 5 4 4
1 1 1 3 4 4 4 4 3 2 3 2 3 5 5 8 2 2 6 7 7 2 1 3 6 7 7 9 8 9 9 8 8 9 9 7 8 10 9 6 2 5 5 6 10 8 10 12 13 13 13 11 10 9 8 8 8 9 8 8 7 7 6 6 6 5 5 5 5 5 5 5 5 5 5 4 5 4 4 4 4 4 4 4 4 3 2 2 3 3 4 5 6 5 5 4 4
1 2 3 3 7 5 3 2 4 1 1 2 2 1 3 2 3 3 2 7 5 6 2 1 6 7 7 7 6 8 9 9 10 8 7 8 8 10 7 3 8 6 4 6 7 6 7 10 11 12 12 11 10 10 9 8 8 9 9 8 8 7 7 6 6 5 5 5 5 5 4 4 5 4 4 4 4 4 4 4 4 4 4 4 4 4 3 3 4 4 4 4 5 4 4 5 5
2 2 2 1 7 0 3 1 1 2 2 5 5 3 1 2 1 3 5 5 3 3 7 2 1 4 7 7 7 7 7 6 7 9 12 12 10 10 10 10 9 10 8 6 2 2 7 10 11 11 11 10 11 11 10 10 9 9 9 8 8 8 8 7 6 6 6 5 6 5 4 4 4 4 5 4 4 4 4 4 4 4 4 4 4 4 4 3 4 4 4 3 5 4 4 5 6
1 0 2 4 7 3 4 3 1 2 2 4 3 1 4 1 3 5 8 3 2 3 4 9 6 2 2 5 6 7 8 8 8 8 10 6 11 5 2 2 2 8 7 7 2 2 7 7 8 10 10 11 12 11 10 9 7 7 8 8 8 8 8 7 7 7 6 6 6 7 6 5 4 5 4 5 4 4 4 3 3 4 4 4 4 4 4 4 4 4 3 2 3 4 4 4 4
1 3 1 4 8 2 1 4 1 1 1 1 2 4 6 8 8 7 6 5 3 3 6 6 7 4 1 3 5 5 6 7 9 12 9 11 15 15 14 7 5 7 8 8 7 3 4 6 5 4 8 9 9 7 8 8 9 7 6 7 7 8 7 8 7 7 7 6 6 7 7 6 5 5 5 4 4 4 4 4 4 4 3 4 4 4 4 3 3 3 3 2 1 3 4 4 5
0 1 6 2 3 2 9 2 7 5 1 0 1 1 7 8 9 5 4 4 2 4 6 6 6 6 2 3 4 6 8 11 13 10 9 13 10 9 13 13 12 11 8 11 15 16 12 6 6 4 6 7 8 8 8 8 8 8 8 7 7 8 7 7 7 7 7 7 7 7 8 7 6 6 6 5 5 5 4 4 4 5 4 4 4 4 4 3 4 4 4 3 2 2 4 4 5
3 3 1 3 5 5 9 3 2 4 3 5 5 0 5 6 6 6 8 7 2 5 6 6 5 6 1 2 3 5 5 5 5 6 8 9 10 12 13 14 12 10 12 14 11 10 13 14 11 8 7 7 8 7 7 7 7 7 7 7 7 8 7 7 7 7 7 7 7 7 8 8 7 7 7 6 5 5 5 5 5 5 5 4 4 4 4 4 4 4 4 4 3 3 4 4 4
5 4 1 1 1 2 4 3 2 2 2 3 3 2 3 3 3 2 5 4 3 4 5 6 7 6 4 3 3 3 2 3 5 7 7 8 9 11 12 13 14 13 12 10 12 12 12 13 12 10 10 9 9 8 7 6 5 5 6 7 6 7 7 7 7 6 7 7 8 8 8 8 8 8 7 7 6 6 5 5 5 6 4 5 5 5 5 5 5 4 4 4 5 4 4 5 5
4 2 1 1 2 3 1 9 1 4 4 1 5 1 2 4 7 10 10 9 6 8 6 7 7 7 6 4 3 3 3 4 8 8 9 8 10 12 11 13 15 13 12 11 12 15 15 13 12 12 11 10 9 9 8 7 6 6 5 4 4 6 6 6 7 7 7 7 7 8 9 9 8 8 8 7 6 6 6 6 5 5 5 5 5 5 5 5 5 5 5 4 5 5 4 5 6
2 3 3 2 1 1 3 2 4 7 3 4 4 3 5 7 9 11 9 8 9 11 8 7 9 10 11 8 6 4 4 6 9 8 8 8 11 12 12 13 13 13 12 12 11 11 11 11 10 11 11 11 9 8 7 6 5 4 4 5 4 5 4 5 6 7 7 7 8 8 9 9 8 9 8 8 7 6 6 6 5 6 5 5 5 5 5 5 5 5 6 5 4 6 5 5 5
2 2 1 1 1 2 3 4 4 1 5 4 5 4 6 9 11 12 12 9 11 10 10 10 10 10 10 10 9 6 5 8 3 4 5 5 9 12 11 11 11 12 12 12 13 11 11 11 9 9 10 11 9 8 7 6 6 6 6 5 5 6 6 6 7 8 8 8 8 8 8 8 8 8 9 8 8 7 6 6 6 6 6 5 5 5 5 6 7 7 6 6 5 3 3 4 6
1 2 1 2 2 5 4 4 6 3 1 2 2 4 5 6 7 9 10 10 16 15 14 12 12 11 11 11 11 10 8 9 1 3 4 4 5 9 9 10 10 10 10 11 12 13 13 13 11 12 9 10 9 9 9 9 8 7 6 7 8 6 6 6 6 6 7 8 9 8 8 8 8 9 9 9 8 7 7 6 6 6 6 5 6 7 7 7 7 7 6 5 6 4 2 4 5
2 1 1 4 3 3 3 0 3 5 1 2 2 6 6 4 4 8 8 15 15 13 13 14 13 13 11 14 13 13 11 8 9 4 4 5 4 3 5 8 9 12 11 12 14 15 14 12 13 11 9 10 10 10 10 10 9 8 8 6 6 6 6 8 7 7 8 8 9 8 8 8 9 9 9 9 8 8 7 6 7 6 6 6 6 7 5 5 5 5 5 4 2 5 4 5 6
1 1 1 1 4 5 7 2 2 3 2 1 1 7 3 5 4 5 11 9 7 8 10 8 10 13 13 13 14 14 15 17 11 10 5 5 7 5 5 7 12 15 14 15 14 11 11 12 11 10 9 10 10 11 10 10 8 6 8 7 7 6 6 5 4 3 4 5 6 8 8 9 10 9 9 9 8 8 8 7 7 6 6 6 6 6 5 5 5 5 6 6 4 2 3 3 7
3 2 1 3 2 1 3 2 2 5 1 1 1 6 1 5 2 6 8 6 5 7 8 8 9 12 13 12 11 13 13 17 14 10 9 4 3 8 7 7 7 5 8 8 8 11 10 10 10 10 9 9 10 11 10 8 7 6 7 6 7 7 6 5 3 1 3 4 7 7 8 9 10 9 9 8 7 8 8 8 7 6 7 6 7 7 6 5 3 3 4 4 6 4 3 3 6
1 2 2 1 1 2 5 3 2 2 2 3 4 4 2 6 6 7 5 3 6 10 11 12 12 11 10 9 10 11 13 14 13 13 11 8 1 5 9 9 7 8 8 10 11 11 10 13 12 11 10 11 10 10 10 8 7 6 5 3 3 3 1 3 4 3 6 7 6 7 10 9 8 8 8 8 7 8 7 7 7 7 7 7 6 6 6 6 5 5 6 6 6 6 5 3 4
5 5 6 6 2 3 3 2 2 4 1 1 1 1 1 3 2 3 6 5 9 7 11 13 13 14 14 15 14 13 12 11 12 13 11 9 6 3 3 2 5 6 6 5 6 8 6 7 8 9 9 9 10 11 10 9 9 10 9 8 8 7 8 6 7 9 8 10 12 10 7 7 8 7 7 8 8 7 7 8 8 7 7 7 7 7 6 4 4 5 6 7 7 5 7 5 4
2 4 5 6 4 2 2 0 1 1 0 1 1 3 2 3 5 8 8 4 7 8 12 12 11 13 13 12 14 14 14 13 11 10 12 9 7 6 4 3 2 1 1 1 3 3 3 3 6 8 9 8 9 10 11 9 9 9 11 12 11 10 9 6 5 6 6 6 4 3 5 5 7 8 8 8 8 8 8 8 8 8 8 7 7 6 6 7 7 7 6 6 7 6 6 6 7
2 2 3 4 4 3 2 2 2 2 1 2 3 2 3 1 2 4 7 2 7 12 14 13 10 13 13 12 13 14 13 13 11 12 12 11 6 5 6 6 4 3 2 4 3 3 3 3 5 7 6 5 3 2 4 7 10 9 8 8 8 8 8 7 7 7 5 4 4 4 5 6 6 8 8 9 9 9 9 8 9 8 8 8 7 8 8 8 7 6 8 8 6 7 8 8 8
2 2 5 2 2 2 4 1 2 0 0 6 2 1 1 1 3 4 7 8 11 11 11 11 11 12 11 13 12 13 13 12 11 11 12 13 13 10 7 6 5 4 4 4 4 3 4 3 4 4 5 5 5 8 4 4 4 2 4 5 6 6 6 6 5 4 4 3 5 3 5 6 6 7 8 9 9 10 9 9 9 9 9 8 8 8 8 8 10 9 8 7 8 7 8 7 7
3 2 5 5 5 5 2 2 2 1 2 3 1 2 1 1 5 8 7 5 10 9 9 9 10 11 13 11 12 11 11 10 10 11 11 13 12 12 10 12 11 7 5 6 5 5 4 4 5 3 3 5 8 10 10 10 9 5 5 4 5 5 5 5 5 6 5 4 5 4 4 5 6 6 7 7 8 9 9 9 9 10 10 9 8 9 9 9 8 8 9 9 9 9 7 7 8
3 4 1 3 7 3 3 6 2 3 0 3 4 4 3 1 2 4 7 6 8 9 6 9 12 12 13 11 10 11 11 11 11 11 11 11 9 12 12 14 11 12 10 8 6 5 4 5 5 4 2 3 3 8 8 9 9 8 7 6 5 5 4 5 5 5 6 6 6 6 5 6 5 6 5 6 7 8 8 9 9 9 9 9 8 8 8 9 8 8 8 9 9 9 7 8 7
2 1 2 1 1 7 3 4 4 2 2 2 1 3 2 3 1 2 6 7 8 7 9 10 11 13 11 9 9 10 10 10 11 11 12 11 11 14 14 15 14 13 13 12 9 7 7 6 4 5 5 5 4 3 3 2 4 6 7 7 6 5 4 4 6 7 7 8 8 8 5 4 5 4 5 6 7 8 8 8 9 9 9 9 8 7 7 8 7 7 7 8 8 9 8 8 8
6 5 5 2 2 3 1 4 1 1 4 0 1 2 2 3 2 6 7 7 7 7 6 6 9 12 10 10 10 8 9 10 11 11 11 11 11 12 13 12 13 15 12 12 11 9 8 7 6 6 5 4 4 6 4 2 1 1 4 7 6 5 3 0 3 4 3 6 7 7 6 7 5 5 6 7 7 9 8 8 8 8 8 7 7 7 7 8 8 8 8 9 9 10 9 10 9
4 2 4 4 1 2 1 3 1 4 2 2 2 2 3 1 3 7 6 7 6 7 7 7 9 10 8 7 8 8 9 9 9 9 10 10 10 10 10 10 11 10 11 12 12 11 9 9 8 7 4 2 1 2 4 5 4 3 2 1 4 5 5 6 5 3 4 8 7 5 8 8 8 8 8 8 8 8 8 9 9 9 9 8 9 9 9 9 9 9 9 9 10 10 9 11 10
1 2 2 3 5 3 1 2 1 2 2 3 4 1 1 2 2 6 7 7 6 6 6 5 7 7 7 4 8 9 9 10 9 9 10 10 10 9 8 9 8 9 9 10 10 11 11 11 9 7 7 8 7 1 4 7 6 6 6 4 4 2 2 3 6 7 7 5 2 7 10 5 6 8 8 8 5 7 8 7 8 8 8 8 8 8 8 9 9 9 9 10 9 9 10 10 10
0 2 3 5 1 5 1 2 2 1 1 5 5 1 2 2 3 5 5 8 6 6 6 5 7 6 5 7 8 8 8 8 8 8 10 11 10 9 9 8 7 7 8 9 10 10 11 11 12 12 9 5 3 5 1 5 6 4 4 3 4 5 4 3 2 3 5 8 8 7 3 5 9 10 6 5 6 6 6 7 7 8 7 8 9 9 10 9 10 10 10 9 10 8 10 12 10
2 1 0 1 3 7 4 1 1 2 4 0 1 2 1 1 2 6 8 8 7 5 8 7 7 5 3 6 6 7 7 7 8 9 10 10 10 9 7 7 7 8 9 10 10 9 9 9 11 12 11 11 9 6 5 2 0 2 3 4 4 5 5 5 6 6 6 6 8 8 9 8 6 6 8 8 5 4 5 6 7 8 8 9 9 10 11 11 11 11 11 11 11 10 10 12 10
3 1 2 1 2 3 4 1 1 2 1 1 1 1 2 1 2 2 3 3 1 5 5 5 7 6 5 5 4 4 5 5 6 6 7 8 7 8 8 7 7 8 8 10 10 8 8 9 8 9 10 11 11 9 7 5 3 2 2 3 3 4 5 6 5 5 3 1 1 4 7 8 9 6 6 6 5 4 5 6 7 8 8 9 10 10 10 11 11 10 11 11 11 10 10 9 10
1 3 3 1 2 0 3 3 0 0 1 1 2 1 1 2 1 1 1 0 3 5 3 4 4 5 6 7 6 5 4 3 5 7 7 8 7 7 8 8 8 7 7 7 7 8 9 9 10 9 9 7 7 6 6 7 7 5 3 3 4 4 4 4 5 5 5 4 4 5 4 5 7 9 7 6 5 5 5 6 7 8 8 9 9 9 8 8 9 9 9 9 9 9 9 9 8
3 1 3 0 2 2 1 2 2 4 1 1 2 0 2 2 2 3 2 5 3 3 3 3 3 4 5 5 6 7 7 7 7 7 7 6 7 8 8 8 9 10 9 8 8 8 10 9 9 8 4 4 6 9 9 10 9 8 8 6 4 4 5 6 6 6 6 8 8 8 7 7 7 5 6 6 6 6 6 6 6 7 8 8 8 8 8 8 8 9 8 8 8 9 9 9 8
6 6 3 3 2 1 2 1 0 1 4 3 3 1 4 1 4 6 4 2 2 2 2 2 2 3 3 4 4 6 7 6 6 6 6 5 5 6 7 7 7 6 7 8 9 9 8 7 8 7 7 8 8 8 9 8 8 9 9 9 7 4 5 6 7 6 7 7 6 5 5 6 3 6 6 7 8 8 7 7 7 7 7 7 8 9 7 7 8 9 8 9 9 9 11 9 8
0 1 2 2 0 0 1 2 2 2 3 2 4 3 2 0 2 4 2 0 2 3 2 0 1 0 1 2 3 3 4 6 6 6 4 5 5 4 4 4 5 7 8 9 8 7 7 7 6 5 5 7 7 9 8 8 7 7 8 9 10 8 4 3 5 5 6 5 6 6 6 5 6 6 5 6 7 6 7 7 8 8 8 8 8 8 8 7 9 10 10 8 9 10 11 10 9
Wind_Direction
64 49 80 64 48 268 35 1 139 305 81 238 4 177 238 313 232 332 270 344 28 258 219 330 166 164 167 205 198 164 199 144 203 131 213 236 147 150 147 132 135 140 139 138 138 144 146 145 140 136 134 131 129 128 126 125 122 121 121 120 121 122 122 122 119 120 123 121 118 117 115 112 108 106 105 105 105 105 104 104 103 103 104 104 105 106 106 102 96 89 83 79 76 76 82 103 125
83 87 52 27 264 51 118 130 94 16 37 72 250 141 255 297 27 242 294 55 233 306 324 308 99 105 55 97 142 135 52 214 179 199 288 248 131 139 148 142 147 145 147 145 148 147 148 147 142 138 136 132 130 129 129 128 127 125 124 124 125 124 123 121 121 121 120 119 118 115 112 109 105 101 103 102 102 104 106 106 107 106 107 108 110 110 105 101 94 88 83 80 78 82 83 90 115
76 95 69 82 23 83 114 39 244 124 146 197 264 213 317 75 191 283 227 270 288 296 308 305 195 44 8 297 55 119 239 136 234 121 38 135 133 185 156 146 146 144 148 145 146 149 145 147 143 140 139 136 134 134 132 131 129 128 127 126 125 125 123 122 121 117 117 118 116 112 108 106 102 100 100 100 100 97 98 104 110 111 110 110 111 110 106 100 93 88 86 84 86 89 87 84 95
84 135 135 91 54 28 69 33 84 134 155 204 306 266 199 174 245 246 286 270 286 308 339 323 351 204 124 1 238 328 265 313 214 159 144 188 226 164 158 151 147 142 141 142 148 145 144 145 143 141 140 138 136 135 135 132 130 128 127 125 124 123 123 122 120 118 116 110 109 109 108 105 103 100 98 98 99 99 98 82 101 112 111 111 112 111 107 101 95 90 87 86 93 96 92 90 94
61 266 134 99 114 355 109 172 141 116 174 200 170 272 232 232 264 307 298 315 301 317 311 310 350 309 156 156 176 194 255 236 296 187 255 226 77 162 149 145 140 140 144 147 145 143 142 145 143 141 139 138 137 136 135 132 129 128 126 124 123 122 122 120 117 115 114 112 110 107 105 101 99 99 96 94 96 100 96 94 87 106 112 112 111 109 104 101 96 92 89 91 99 100 98 96 97
51 39 352 88 104 178 63 88 71 179 224 150 44 268 204 224 257 284 306 311 281 287 345 10 234 315 345 269 180 173 201 87 263 177 183 252 143 149 141 134 134 140 140 139 142 145 141 145 139 138 138 138 138 137 134 132 130 128 125 122 121 121 122 119 116 115 115 113 110 107 104 102 98 96 96 93 93 94 99 94 97 76 113 113 109 104 101 101 97 92 92 97 101 102 100 100 100
210 57 352 44 18 59 172 140 178 182 269 161 230 272 283 241 215 311 318 344 292 303 236 256 148 245 302 307 343 256 200 164 136 216 142 131 131 136 136 135 136 136 135 139 136 145 142 142 142 141 142 141 141 138 134 130 127 125 122 121 121 122 121 120 119 118 116 112 109 105 102 100 96 93 90 89 89 90 95 115 113 124 106 110 107 100 97 98 93 91 91 99 103 101 99 99 100
2 115 310 109 199 57 148 177 191 156 267 173 220 264 286 291 296 279 279 77 287 356 299 241 136 176 246 217 241 258 44 222 204 126 109 126 132 134 132 133 134 132 137 131 138 145 145 143 143 142 141 142 141 138 134 130 127 124 123 123 123 124 124 123 122 119 115 110 107 105 102 99 95 92 87 86 86 87 88 90 104 103 99 102 103 96 89 89 90 89 92 101 106 104 103 101 100
352 85 307 80 168 30 61 177 222 238 286 263 276 235 263 262 241 219 292 214 306 260 292 296 132 314 258 260 219 250 299 118 103 117 122 130 134 134 131 136 135 133 135 134 140 144 143 143 141 141 141 142 140 138 134 130 128 128 129 128 128 128 128 126 124 120 114 111 108 106 103 100 97 95 91 90 87 86 89 91 94 93 91 99 100 90 84 84 86 88 93 101 105 107 106 104 102
36 97 227 150 117 203 135 295 127 231 215 240 248 283 293 295 305 302 281 316 264 268 260 274 181 221 225 227 285 313 209 127 111 99 119 129 132 131 132 134 138 137 136 136 141 138 140 145 143 141 141 140 139 138 134 130 130 132 134 134 132 131 130 128 124 121 117 113 110 108 106 102 99 95 93 92 93 95 95 95 93 90 88 95 98 85 82 81 81 85 94 102 106 109 107 104 103
120 14 141 92 86 189 205 264 248 302 248 302 284 242 244 281 283 307 306 261 292 279 299 147 253 230 120 258 211 274 164 134 126 134 131 128 130 133 136 138 143 140 138 138 139 136 142 144 146 141 140 140 139 137 133 132 132 134 137 137 134 131 130 128 127 123 119 115 112 109 107 102 99 98 99 99 103 103 102 103 96 93 95 96 96 88 82 78 80 81 92 106 111 111 106 104 102
65 107 47 148 192 170 222 192 228 251 293 330 273 267 240 206 18 332 320 327 320 313 289 165 254 154 179 307 281 319 133 154 145 143 136 133 136 138 135 134 138 138 137 138 136 136 139 143 142 143 141 141 137 135 133 133 135 138 140 138 134 132 130 129 129 126 122 117 114 110 106 103 101 100 101 104 104 105 108 107 104 103 103 100 97 89 82 80 80 83 94 106 114 113 106 104 102
123 129 89 91 219 150 196 124 241 199 315 262 230 262 213 19 297 270 270 276 297 310 306 216 235 125 258 214 242 229 170 191 124 139 137 135 136 132 127 128 134 134 136 135 137 137 137 141 139 141 145 142 137 135 135 135 137 139 142 141 137 134 132 130 129 127 123 118 115 111 107 104 103 103 103 104 105 108 112 111 107 109 108 104 97 86 81 79 79 82 91 102 115 113 108 106 104
115 174 131 201 93 149 145 201 142 188 261 252 253 278 330 266 254 242 291 330 291 275 240 312 182 179 245 358 298 219 196 153 124 132 135 132 129 125 128 132 134 134 137 140 140 138 138 141 138 141 144 141 139 138 138 139 139 140 143 143 140 137 132 131 129 128 123 119 115 111 108 107 106 105 106 106 107 108 111 111 110 108 105 100 93 88 82 79 79 81 86 96 111 111 108 106 103
130 163 84 119 104 103 245 156 193 181 255 224 259 210 304 253 226 295 265 244 272 234 292 273 185 112 247 187 276 223 169 146 133 133 132 126 123 125 130 135 135 137 140 142 140 140 141 141 141 142 142 140 138 137 138 142 141 142 144 145 143 140 136 132 131 131 125 121 119 115 113 110 108 109 107 109 110 111 110 108 109 106 103 99 94 89 83 79 80 78 81 97 111 109 106 102 100
149 89 91 134 219 161 270 168 197 144 251 215 274 356 75 286 292 334 275 183 262 296 40 302 280 201 234 185 238 71 125 132 133 133 131 126 124 127 135 139 140 141 144 144 145 146 146 144 145 146 145 142 138 136 137 137 144 144 147 148 146 144 141 138 135 134 132 127 123 119 116 112 110 110 110 110 112 112 112 114 111 107 104 94 91 88 82 81 79 74 77 99 111 109 103 101 101
64 78 104 68 234 148 245 162 137 219 248 283 285 41 39 306 294 230 274 58 289 294 340 235 218 351 286 282 92 129 121 126 130 134 134 136 137 144 141 144 144 148 147 149 152 151 150 147 145 145 149 143 139 137 136 138 147 147 148 149 149 147 145 145 141 138 135 131 126 123 114 104 97 100 106 105 107 114 120 117 114 111 104 97 94 90 82 78 75 66 67 98 105 102 102 101 102
64 146 114 209 200 143 212 183 188 182 255 274 312 3 17 324 327 287 330 332 285 293 304 298 324 38 292 276 113 129 138 138 147 145 150 145 150 150 157 158 158 161 157 155 156 154 152 151 148 147 145 145 143 138 139 142 145 146 142 148 150 151 151 148 143 140 135 131 130 109 107 110 109 111 109 111 102 109 119 120 117 112 103 99 95 91 85 82 77 73 70 94 101 98 83 73 88
104 97 96 216 190 236 166 217 240 305 275 254 270 267 192 243 6 288 344 311 330 335 318 334 314 315 5 48 121 127 140 146 153 155 153 156 159 163 163 163 164 160 165 162 160 157 155 151 150 150 147 145 139 135 138 141 139 135 141 144 150 152 153 145 140 141 128 120 109 114 107 111 115 106 110 118 118 121 121 122 120 114 108 102 97 92 87 84 81 78 73 72 85 77 68 68 63
219 113 192 253 207 235 223 227 245 225 241 276 295 299 137 268 219 293 298 280 321 316 306 331 337 321 17 18 126 139 148 155 159 162 159 159 164 166 167 169 168 170 166 165 159 159 156 154 153 150 148 147 139 135 134 134 132 137 139 144 144 148 147 142 139 137 131 119 118 114 116 117 117 131 130 122 115 87 107 120 122 114 111 104 89 73 69 75 78 72 66 67 70 71 73 67 63
274 98 180 226 208 180 261 218 239 251 246 265 239 339 335 284 243 16 240 332 311 287 231 227 281 299 152 126 125 133 136 149 157 168 165 162 164 167 172 173 170 164 163 158 160 164 163 157 151 150 151 146 140 138 136 133 132 131 139 145 145 148 142 143 140 139 134 128 127 127 131 123 118 98 90 96 102 103 80 55 61 52 61 72 88 78 68 74 78 82 68 68 76 86 76 73 69
115 200 194 200 153 193 246 227 238 239 350 111 310 339 263 293 309 210 169 234 250 244 299 286 264 256 158 152 148 140 145 154 164 168 178 171 172 165 163 165 161 158 161 166 167 157 162 155 152 150 154 157 151 142 140 139 137 143 148 150 146 148 150 148 146 146 139 138 136 138 134 129 122 109 107 118 112 114 105 91 92 87 70 76 80 86 73 68 80 91 91 76 79 91 89 85 89
197 324 299 254 237 264 269 275 221 162 257 196 88 227 318 358 270 246 195 207 240 226 254 282 277 169 148 141 143 149 155 159 160 164 170 179 177 170 162 165 167 167 167 168 162 159 159 156 158 160 160 155 148 141 141 142 147 151 151 155 152 156 155 151 154 149 142 137 137 141 140 141 136 128 127 133 132 128 124 128 121 111 100 87 80 93 96 83 73 82 89 92 88 95 98 98 99
112 226 320 307 177 215 246 256 291 288 237 258 216 80 220 248 273 188 228 246 239 272 283 278 98 113 129 141 163 159 162 158 157 157 163 163 168 168 161 153 175 162 165 163 166 161 159 157 158 163 161 155 150 147 145 149 150 150 158 159 157 162 157 161 156 150 136 137 144 146 140 144 146 139 144 144 147 129 137 136 132 125 119 116 90 106 107 90 83 74 95 95 86 91 114 105 104
111 304 274 268 182 239 267 260 272 267 253 243 147 169 237 184 211 37 253 263 286 297 313 119 113 117 124 138 151 150 149 144 135 139 131 135 143 88 62 9 240 203 174 168 168 165 160 156 160 166 163 159 153 150 153 153 154 154 159 160 161 166 162 160 153 142 140 141 144 142 139 142 140 139 151 157 149 134 131 136 143 144 140 133 130 117 115 104 81 69 83 92 90 89 107 109 110
181 244 266 283 286 287 266 263 249 259 265 154 140 220 269 241 277 235 241 263 250 272 144 138 127 135 151 157 156 159 157 145 139 139 147 135 135 123 163 128 65 226 214 178 176 170 165 164 170 171 163 160 155 155 155 157 161 161 163 162 162 160 163 151 150 152 146 146 148 146 146 145 152 151 154 153 154 152 148 140 137 143 145 149 150 157 155 129 105 69 70 92 99 97 104 130 119
176 262 231 267 278 326 346 55 331 271 220 132 192 242 236 260 134 277 283 247 275 339 328 116 140 162 167 160 156 163 159 157 154 147 137 140 137 144 152 145 145 150 217 233 191 182 176 172 177 169 161 159 157 161 161 165 167 169 167 165 165 161 159 154 157 152 149 145 143 143 143 146 143 139 148 154 159 153 159 155 152 137 134 152 151 149 133 129 103 90 81 85 98 113 131 134 133
302 215 324 341 329 280 299 350 340 7 320 172 174 249 190 277 98 226 245 275 3 318 295 301 204 181 177 170 166 167 158 148 150 164 164 161 159 150 162 174 170 151 153 206 255 237 201 195 180 168 161 159 164 170 168 168 174 174 169 165 170 162 158 163 161 157 157 150 146 146 142 143 141 141 147 154 160 159 169 174 156 155 153 150 152 144 131 111 109 111 109 103 107 115 128 128 138
262 151 352 311 352 59 3 23 317 35 289 175 194 341 314 350 208 236 247 330 34 342 319 310 301 258 214 189 167 166 170 169 173 179 182 121 74 73 132 305 227 162 141 134 97 354 259 234 189 171 165 172 172 174 170 166 168 175 171 170 171 165 163 162 166 168 160 157 154 152 149 148 152 150 157 158 165 168 167 173 180 191 162 148 145 142 131 122 110 107 89 97 96 109 113 123 128
81 45 94 360 3 29 295 334 320 345 260 194 167 296 276 278 244 267 309 317 350 332 312 277 279 291 187 221 185 168 158 178 192 193 166 142 168 174 156 149 221 186 151 133 126 199 261 307 277 197 177 173 175 174 171 169 169 172 177 174 172 168 169 168 171 168 163 161 159 158 155 158 153 155 156 167 165 170 174 183 199 216 183 154 141 142 143 142 129 125 125 109 119 117 125 134 133
135 293 63 77 32 303 306 16 307 49 318 274 135 171 284 278 302 336 291 298 256 244 250 266 275 283 269 201 206 192 188 191 196 195 169 172 167 139 152 169 183 186 159 159 174 178 165 208 244 227 189 180 177 175 183 178 177 173 172 181 179 176 174 176 174 169 166 166 163 166 164 164 160 160 165 168 180 176 180 192 203 217 192 166 156 160 150 145 144 159 146 152 120 112 130 149 149
19 74 302 325 81 298 301 309 39 59 319 20 82 39 241 280 306 5 328 305 295 235 254 270 277 288 1 288 226 218 222 224 236 217 194 178 133 154 158 174 180 174 179 183 169 153 170 186 203 195 193 181 187 183 185 187 187 183 177 179 181 180 179 180 180 177 171 168 171 171 171 167 165 166 167 170 177 183 185 195 208 203 194 172 173 157 151 165 169 160 171 158 162 178 146 154 144
358 86 233 43 47 300 348 325 76 291 258 345 80 254 331 316 358 323 311 333 254 236 284 290 286 283 283 220 225 232 195 221 247 226 207 167 150 158 166 170 182 182 187 177 161 164 176 186 192 185 187 185 187 186 186 188 183 191 187 186 189 188 184 183 180 175 178 179 177 176 173 171 169 171 171 172 173 182 187 200 208 203 187 183 174 167 176 177 169 173 179 176 169 191 164 160 158
322 12 80 265 62 347 15 306 16 18 53 7 6 104 241 268 332 335 357 5 5 32 339 311 307 307 295 300 267 222 212 206 220 222 211 178 160 167 170 176 183 179 187 181 176 173 179 184 188 185 184 187 186 187 189 191 189 185 187 193 189 201 204 193 178 174 187 189 183 184 175 174 172 175 176 173 175 179 187 197 202 199 188 186 180 168 192 171 172 171 187 191 177 179 184 169 171
275 340 15 332 343 276 271 18 296 17 19 64 347 52 323 333 355 359 359 2 36 39 20 1 347 335 326 321 307 285 224 208 223 222 216 183 158 172 176 178 182 177 182 181 182 182 176 182 188 189 182 181 183 183 185 183 184 188 172 184 197 208 221 223 193 183 187 188 195 187 178 175 172 175 179 176 176 178 183 196 196 196 188 190 181 178 174 175 176 180 184 191 185 192 190 177 155
193 188 204 185 355 300 308 249 281 34 356 23 29 7 338 350 5 359 3 4 36 30 25 16 4 354 347 338 327 321 295 256 222 265 249 206 168 172 176 180 181 178 177 177 180 181 180 182 189 190 184 179 177 181 177 179 176 188 184 180 192 208 212 216 217 202 182 192 197 191 184 172 172 174 180 180 178 178 182 191 200 187 190 182 189 189 188 182 185 176 189 179 177 174 169 136 121
107 113 135 208 204 283 278 284 261 291 65 22 17 35 25 1 12 1 357 11 29 19 15 10 4 359 355 348 339 328 313 292 307 202 238 235 203 176 172 175 178 175 176 178 180 184 183 184 183 193 184 175 178 179 182 184 183 184 190 193 202 199 208 216 231 228 202 196 190 190 182 176 172 174 181 178 180 180 183 190 197 193 187 185 196 213 203 196 192 180 174 164 153 140 116 119 122
171 132 148 295 176 255 239 256 326 308 122 356 41 74 13 343 354 13 10 33 25 13 9 7 0 359 357 355 344 341 321 305 326 306 188 201 203 199 171 170 167 172 187 182 187 188 184 181 191 187 178 181 184 186 186 189 192 189 178 184 190 192 203 213 223 229 225 202 187 185 184 180 179 180 182 179 177 177 180 190 197 199 185 194 206 222 216 194 180 168 143 110 103 148 162 149 148
108 201 195 341 274 231 288 273 293 309 72 13 21 78 354 345 333 21 42 43 29 18 14 2 358 5 0 356 350 344 347 338 327 316 304 202 172 178 182 187 186 186 181 189 193 181 180 185 191 186 184 183 187 189 191 195 188 180 173 170 184 196 211 219 222 242 291 268 209 190 188 186 183 186 183 179 176 179 181 184 198 201 196 193 203 224 232 218 179 172 154 144 115 71 104 136 166
140 80 75 226 238 27 302 290 352 358 74 155 156 94 342 347 351 76 47 48 32 12 9 9 13 10 5 359 352 347 346 348 331 323 307 313 218 173 183 194 201 188 184 191 188 190 188 190 187 188 187 188 190 193 194 190 183 178 175 165 173 186 197 209 228 185 208 232 227 207 199 193 189 185 183 178 177 177 177 183 188 195 203 197 200 211 214 231 169 125 129 141 135 118 150 171 187
320 155 147 247 242 241 173 253 2 322 5 70 83 47 340 10 3 2 31 16 36 14 2 10 13 11 353 351 1 2 355 346 345 332 327 319 278 220 199 187 181 193 192 191 193 192 191 191 189 188 186 189 194 193 190 173 170 167 163 125 130 158 155 162 159 206 199 210 224 220 211 195 185 178 177 179 177 177 177 177 181 193 194 197 197 205 205 207 195 168 161 154 165 154 178 145 200
321 234 191 202 186 203 267 338 33 25 358 328 110 13 307 305 331 21 349 5 25 7 13 2 0 5 1 359 355 355 359 354 355 356 339 312 303 318 315 293 201 201 201 207 213 211 201 185 181 184 189 191 195 192 183 177 181 177 172 179 185 195 202 186 198 205 202 204 212 217 208 185 176 173 174 176 178 169 173 176 181 181 189 191 193 198 196 176 164 160 174 175 175 179 162 165 166
68 276 196 204 188 149 121 62 71 359 178 290 55 142 258 328 8 2 349 3 22 3 13 359 358 5 3 354 356 352 355 353 0 5 0 359 351 344 350 15 356 16 20 111 165 191 178 161 183 193 196 197 193 188 183 181 183 185 191 191 190 193 196 202 197 209 212 225 255 237 210 196 179 170 173 173 175 170 169 173 177 183 188 190 189 181 180 182 181 178 159 168 183 170 147 174 180
234 258 133 115 117 136 184 112 133 209 275 303 37 109 173 255 313 354 336 349 26 19 4 356 355 6 359 357 354 355 357 354 359 10 16 15 5 30 23 18 36 58 67 59 82 110 150 151 164 182 195 204 196 150 188 198 187 190 189 194 193 195 198 188 189 209 203 202 211 211 192 194 188 181 174 177 175 170 168 173 177 182 187 191 183 187 188 185 176 174 173 180 169 175 180 182 188
212 201 143 129 151 187 153 111 142 355 4 285 331 337 57 277 280 336 4 26 8 18 359 348 353 357 355 358 354 355 354 351 2 10 16 21 13 20 41 51 39 60 54 82 92 93 101 108 135 155 177 148 109 95 139 248 270 231 198 187 196 201 184 175 181 192 194 179 194 209 202 202 197 193 186 180 178 175 173 173 178 185 190 191 190 190 184 177 180 176 171 166 175 183 186 190 176
274 135 71 73 72 63 86 107 110 339 71 276 279 355 180 281 330 357 9 38 9 360 345 340 341 353 357 354 346 352 352 348 355 7 17 21 15 23 17 40 27 20 65 93 71 85 87 111 122 146 177 127 134 163 186 183 188 169 176 188 206 206 189 177 169 187 186 161 190 200 207 207 208 198 196 187 178 179 178 175 181 189 194 195 195 191 182 176 177 182 182 183 183 184 189 184 190
117 109 81 4 39 31 25 56 91 64 23 255 256 297 159 292 322 11 23 13 348 341 337 341 344 354 356 354 4 16 2 358 360 5 13 21 11 31 24 36 24 30 21 22 66 69 87 107 118 102 54 61 130 162 176 176 173 163 172 175 192 212 212 181 177 187 166 164 178 192 201 210 211 206 193 190 181 179 183 181 185 193 197 199 197 189 183 180 181 181 185 186 185 185 183 190 197
111 59 115 57 323 10 34 348 35 118 271 255 273 49 62 208 296 17 41 11 356 348 354 348 347 7 6 11 15 22 12 7 2 9 5 4 12 26 27 34 31 27 28 29 19 34 46 33 55 98 70 34 15 101 120 80 168 172 156 163 182 197 209 213 206 197 185 182 182 185 190 188 209 215 204 187 192 190 186 192 193 194 199 199 198 187 185 186 179 176 178 186 193 193 185 183 192
65 74 41 93 270 34 321 8 307 217 180 151 311 252 34 61 247 20 27 13 353 341 345 351 20 25 12 15 15 19 18 13 11 12 11 8 19 25 24 23 32 33 31 30 29 25 24 25 34 65 56 42 40 12 67 119 278 283 153 144 145 133 124 37 316 304 270 210 184 179 174 185 181 198 210 203 209 196 192 194 196 199 203 202 190 182 188 185 175 178 184 191 193 191 190 186 190
32 97 119 79 57 45 264 277 219 303 298 270 341 356 91 253 103 41 15 348 341 346 356 25 39 30 352 10 20 19 22 23 13 12 18 12 10 23 26 22 29 35 35 36 33 29 26 33 18 13 14 309 202 125 81 36 1 329 355 340 100 109 121 126 123 101 9 328 312 242 188 182 187 198 198 212 206 198 203 204 199 204 205 200 194 192 186 184 180 183 189 194 197 199 191 191 197
282 158 117 183 144 158 242 209 204 218 199 288 323 70 248 163 359 38 5 327 340 3 359 27 54 42 334 337 27 19 20 26 17 14 18 13 7 11 24 24 20 28 33 37 35 32 30 34 25 15 8 347 328 256 143 145 165 199 201 170 139 89 117 152 168 160 152 158 127 344 321 307 219 203 205 220 215 217 217 217 214 209 203 198 195 196 194 187 186 187 192 199 202 196 195 193 200
286 157 84 72 250 148 88 215 152 254 51 14 359 42 344 78 68 46 16 347 16 9 7 41 35 45 339 17 29 16 10 20 22 16 19 15 3 1 14 22 24 18 26 37 39 33 36 30 31 21 6 348 314 310 300 140 151 168 207 217 172 151 151 157 226 208 182 160 152 152 172 293 312 309 277 230 225 225 225 226 226 224 214 205 197 195 196 195 191 190 195 197 203 196 196 196 199
260 78 150 214 167 103 96 76 23 72 60 6 225 166 188 138 156 47 13 353 346 26 11 14 33 25 354 30 26 18 359 10 21 19 15 15 3 360 5 13 20 21 23 31 35 40 39 31 34 32 10 1 358 335 324 351 139 177 213 207 177 171 172 182 187 202 199 179 171 176 171 177 220 279 305 308 303 274 260 246 233 230 219 212 207 204 200 199 195 197 197 197 203 197 197 199 199
93 78 237 202 130 119 125 192 343 63 128 244 242 190 219 221 282 123 58 339 16 50 46 9 16 354 23 28 30 27 15 359 1 22 24 18 2 359 358 8 20 27 23 24 25 27 36 39 32 33 25 2 350 0 359 342 312 270 243 234 225 199 195 203 200 199 199 239 261 218 179 173 176 189 250 267 279 258 251 253 249 242 231 222 219 216 209 203 198 203 203 202 204 193 199 203 201
198 180 210 104 284 355 326 92 334 97 313 279 330 307 243 198 219 84 299 268 43 58 32 28 19 358 9 9 11 21 22 31 29 30 25 20 12 6 4 3 6 17 25 31 28 24 27 37 28 23 20 352 325 337 3 8 10 355 313 262 229 217 213 214 211 191 154 136 164 225 228 206 174 181 196 228 241 237 233 242 245 251 248 240 233 230 222 215 205 208 207 210 206 196 200 205 206
8 18 36 339 103 162 134 205 170 109 185 68 247 275 260 214 173 181 205 246 353 12 33 39 15 8 5 0 356 359 9 10 12 19 21 18 9 5 9 11 10 8 14 20 24 26 29 31 35 23 3 340 345 1 6 13 8 7 358 336 277 232 213 207 206 190 179 188 196 205 210 214 214 192 190 204 215 216 219 229 239 247 249 248 242 235 228 224 215 215 209 212 210 200 202 203 204
336 24 346 360 16 213 103 43 78 158 168 175 154 274 256 293 140 163 208 245 341 7 24 40 13 1 356 353 348 349 349 359 5 2 4 7 3 0 5 8 9 6 14 20 22 22 17 21 36 25 360 352 0 359 6 9 9 7 2 0 342 283 223 207 205 194 190 196 204 210 215 234 212 208 205 209 214 212 211 219 229 236 242 247 248 244 229 221 218 222 217 210 206 203 206 207 199
184 139 89 173 29 86 134 258 25 73 105 201 133 231 288 22 128 161 153 300 330 17 352 343 38 9 338 329 335 337 343 341 343 346 349 352 360 5 2 4 4 13 18 22 18 19 18 18 21 24 5 1 355 1 3 0 7 6 8 357 351 345 301 227 208 194 194 201 211 213 208 215 228 234 209 226 230 221 211 215 222 231 233 235 243 248 239 224 221 221 222 211 208 205 208 208 200